PST,Max TemperatureF,Mean TemperatureF,Min TemperatureF,Max Dew PointF,MeanDew PointF,Min DewpointF,Max Humidity, Mean Humidity, Min Humidity, Max Sea Level PressureIn, Mean Sea Level PressureIn, Min Sea Level PressureIn, Max VisibilityMiles, Mean VisibilityMiles, Min VisibilityMiles, Max Wind SpeedMPH, Mean Wind SpeedMPH, Max Gust SpeedMPH,PrecipitationIn, CloudCover, Events, WindDirDegrees
2013-1-1,53,42,30,33,30,27,96,70,41,30.32,30.28,30.24,10,10,10,10,4,18,0.00,3,,344
2013-1-2,54,41,28,33,29,25,100,73,41,30.29,30.23,30.18,10,10,10,5,1,,0.00,0,,24
2013-1-3,53,38,24,36,31,24,100,80,48,30.30,30.26,30.21,10,10,10,6,2,,0.00,0,,321
2013-1-4,55,42,28,36,32,29,100,79,42,30.33,30.27,30.22,10,10,10,6,1,,0.00,0,,50
2013-1-5,48,39,30,43,38,29,100,89,66,30.30,30.20,30.13,10,7,3,8,2,,0.50,6,Rain,354
2013-1-6,52,44,35,44,41,34,100,92,74,30.21,30.16,30.11,10,9,5,10,5,16,0.05,5,Rain,349
2013-1-7,54,43,32,45,38,32,100,92,66,30.25,30.21,30.17,10,8,3,6,1,,0.00,0,,126
2013-1-8,54,44,33,44,39,33,100,95,69,30.29,30.22,30.17,7,3,0,5,1,,0.00,1,Fog,247
2013-1-9,52,44,35,48,39,29,100,89,58,30.19,30.08,29.96,10,4,0,12,2,23,0.00,2,Fog,262
2013-1-10,51,43,35,34,30,26,85,60,41,30.17,30.10,30.05,10,10,10,15,5,23,0.00,0,,325
2013-1-11,51,40,28,36,30,25,88,66,41,30.25,30.19,30.14,10,10,10,15,7,,0.01,2,Rain,347
2013-1-12,48,39,30,31,26,22,88,62,35,30.27,30.21,30.17,10,10,10,7,4,,0.00,1,,358
2013-1-13,48,36,25,24,17,10,81,47,25,30.30,30.24,30.20,10,10,10,15,4,24,0.00,0,,356
2013-1-14,52,44,33,26,17,11,70,40,23,30.43,30.37,30.26,10,10,10,16,10,31,0.00,0,,347
2013-1-15,51,38,24,30,27,23,96,73,39,30.53,30.47,30.41,10,10,8,6,1,,0.00,0,,73
2013-1-16,57,42,26,35,30,25,96,75,39,30.47,30.39,30.31,10,9,6,5,0,,0.00,0,,89
2013-1-17,59,42,25,37,32,25,100,74,36,30.32,30.25,30.20,10,9,4,6,1,,0.00,0,,38
2013-1-18,64,46,28,36,29,26,96,69,28,30.29,30.22,30.17,10,10,10,6,1,,0.00,0,,334
2013-1-19,64,45,26,33,28,24,96,67,23,30.31,30.24,30.20,10,10,10,6,1,,0.00,0,,25
2013-1-20,64,46,27,33,27,23,92,63,21,30.27,30.22,30.16,10,10,10,7,1,,0.00,0,,204
2013-1-21,61,44,28,39,32,26,96,71,36,30.22,30.18,30.14,10,10,10,5,2,,0.00,0,,68
2013-1-22,63,46,30,38,33,28,96,69,30,30.18,30.11,30.06,10,10,10,6,1,,0.00,0,,11
2013-1-23,52,48,44,47,42,36,100,83,59,30.15,30.08,30.01,10,6,2,10,2,20,0.20,5,Rain,348
2013-1-24,60,54,48,53,50,47,100,93,72,30.22,30.17,30.09,10,7,2,8,3,,0.02,8,Rain,32
2013-1-25,66,56,46,54,51,46,100,92,63,30.21,30.15,30.05,10,5,0,5,1,,0.00,6,Fog,280
2013-1-26,60,50,41,48,42,33,100,82,38,30.05,30.00,29.95,10,6,1,20,3,25,0.00,1,,242
2013-1-27,57,45,33,36,31,27,92,60,32,30.18,30.12,30.05,10,10,10,9,4,,0.00,0,,306
2013-1-28,60,46,33,37,33,30,89,60,35,30.27,30.21,30.15,10,10,10,9,4,,0.00,0,,323
2013-1-29,60,47,34,41,37,33,96,77,46,30.36,30.30,30.26,10,10,10,5,0,,0.00,0,,48
2013-1-30,64,49,34,42,39,34,100,73,40,30.37,30.31,30.28,10,10,10,6,2,,0.00,0,,103
2013-1-31,64,50,35,45,40,34,100,79,48,30.33,30.27,30.21,10,10,7,4,1,,0.00,0,,345